Weather History for KDMO - February, 2013

Change the Weather History Date:

Tuesday, February 19, 2013

  Actual Average Record
Temperature  
Mean Temperature 28 °F 38 °F  
Max Temperature 34 °F 47 °F 70 °F (2004)
Min Temperature 22 °F 28 °F -18 °F (1978)
Degree Days  
Heating Degree Days 37 28  
Month to date heating degree days 509 570  
Since 1 July heating degree days 3109 3385  
Cooling Degree Days 0 0  
Month to date cooling degree days 0 0  
Year to date cooling degree days 1 0  
Moisture  
Dew Point 14 °F    
Average Humidity 52    
Maximum Humidity 69    
Minimum Humidity 35    
Precipitation  
Precipitation 0.00 in 0.07 in 1.80 in (1938)
Month to date precipitation 0.78 1.33  
Year to date precipitation 3.48 3.00  
Sea Level Pressure  
Sea Level Pressure 30.24 in    
Wind  
Wind Speed 13 mph (WNW)    
Max Wind Speed 22 mph    
Max Gust Speed 26 mph    
Visibility 10 miles    
Events      
T = Trace of Precipitation, MM = Missing Value Source: NWS Daily Summary

Daily Weather History Graph

Daily Weather History Graph

Search for Another Location

Airport or City:

Trip Planner

Search our weather history database for the weather conditions in past years. The results will help you decide how hot, cold, wet, or windy it might be!

Date:

Astronomy

Feb. 19, 2013 Rise Set
Actual Time 6:58 AM CST 5:55 PM CST
Civil Twilight 6:31 AM CST 6:22 PM CST
Nautical Twilight 6:00 AM CST 6:53 PM CST
Astronomical Twilight 5:29 AM CST 7:24 PM CST
Moon 12:29 PM CST (2/19) 2:28 AM CST (2/19)
Length of Visible Light 11h 50m
Length of Day
10h 56m
Waxing Gibbous, 67% of the Moon is Illuminated
Feb 19
Waxing Gibbous
Feb 25
Full
Mar 4
Last Quarter
Mar 11
New
Mar 19
First Quarter

Hourly Weather History & Observations

Time (CST) Temp. Windchill Dew Point Humidity Pressure Visibility Wind Dir Wind Speed Gust Speed Precip Events Conditions
12:53 AM 28.9 °F 16.1 °F 19.0 °F 67% 30.08 in 10.0 mi WNW 19.6 mph 26.5 mph N/A   Clear
1:53 AM 28.0 °F 18.6 °F 17.1 °F 63% 30.10 in 10.0 mi West 10.4 mph - N/A   Clear
2:53 AM 28.0 °F 17.0 °F 17.1 °F 63% 30.11 in 10.0 mi West 13.8 mph - N/A   Clear
3:53 AM 27.0 °F 15.2 °F 17.1 °F 66% 30.12 in 10.0 mi West 15.0 mph 24.2 mph N/A   Clear
4:53 AM 27.0 °F 16.1 °F 18.0 °F 69% 30.13 in 10.0 mi WNW 12.7 mph 26.5 mph N/A   Clear
5:53 AM 26.1 °F 14.0 °F 17.1 °F 69% 30.15 in 10.0 mi WNW 15.0 mph 27.6 mph N/A   Clear
6:53 AM 25.0 °F 11.3 °F 15.1 °F 66% 30.18 in 10.0 mi WNW 18.4 mph 32.2 mph N/A   Clear
7:53 AM 25.0 °F 10.6 °F 14.0 °F 63% 30.21 in 10.0 mi NW 20.7 mph 27.6 mph N/A   Clear
8:53 AM 26.1 °F 12.7 °F 15.1 °F 63% 30.23 in 10.0 mi WNW 18.4 mph 24.2 mph N/A   Clear
9:53 AM 26.1 °F 12.7 °F 12.9 °F 58% 30.26 in 10.0 mi WNW 18.4 mph 28.8 mph N/A   Clear
10:53 AM - - - N/A% 30.25 in - North - - N/A   Unknown
12:53 PM 30.0 °F 17.5 °F 12.9 °F 49% 30.30 in 10.0 mi WNW 19.6 mph 25.3 mph N/A   Clear
1:53 PM 32.0 °F 20.5 °F 12.9 °F 45% 30.30 in 10.0 mi WNW 18.4 mph 24.2 mph N/A   Clear
2:53 PM 33.1 °F 21.9 °F 12.9 °F 43% 30.30 in 10.0 mi West 18.4 mph - N/A   Clear
3:53 PM 34.0 °F 23.0 °F 14.0 °F 44% 30.30 in 10.0 mi WNW 18.4 mph 23.0 mph N/A   Clear
4:53 PM 33.1 °F 23.9 °F 9.0 °F 37% 30.30 in 10.0 mi WNW 12.7 mph - N/A   Clear
6:53 PM 28.0 °F 21.7 °F 10.9 °F 49% 30.30 in 10.0 mi NW 5.8 mph - N/A   Clear
7:53 PM 26.1 °F 20.5 °F 12.0 °F 55% 30.32 in 10.0 mi NW 4.6 mph - N/A   Clear
8:53 PM 25.0 °F 18.1 °F 12.0 °F 58% 30.35 in 10.0 mi NW 5.8 mph - N/A   Clear
9:53 PM 25.0 °F 15.5 °F 9.0 °F 51% 30.36 in 10.0 mi NNW 9.2 mph - N/A   Clear
10:53 PM 23.0 °F 17.0 °F 10.9 °F 60% 30.33 in 10.0 mi NNW 4.6 mph - N/A   Clear
11:53 PM 21.9 °F 13.4 °F 7.0 °F 53% 30.34 in 10.0 mi NW 6.9 mph - N/A   Clear